Regional Weather Roundup
Issued by NWS

Home | Current Version | Previous Version | Graphics & Text | Print | Product List | Glossary Off
Versions: 1 2 3 4 5 6 7 8 9 10 11 12 13 14 15 16 17 18 19 20 21 22 23 24 25 26 27 28 29 30 31 32 33 34 35 36 37 38 39 40 41 42 43 44 45 46 47 48 49 50

697
ASUS43 KMPX 121710
RWRMN
WEATHER ROUNDUP FOR MINNESOTA
NATIONAL WEATHER SERVICE TWIN CITIES/CHANHASSEN MN
1100 AM CST TUE DEC 12 2017


NOTE: "FAIR" INDICATES FEW OR NO CLOUDS BELOW 12,000 FEET WITH NO
SIGNIFICANT WEATHER AND/OR OBSTRUCTIONS TO VISIBILITY. N/A MEANS
CURRENT SKY AND/OR WEATHER CONDITIONS ARE NOT AVAILABLE.

MNZ060>063-068>070-121800-
   Twin Cities Metro

CITY           SKY/WX    TMP DP  RH WIND       PRES   REMARKS
TWIN CITIES    CLOUDY    13   6  74 VRB3      30.17F
ST PAUL        MOSUNNY   14   5  67 CALM      30.18F
CRYSTAL        CLOUDY    13   3  64 VRB3      30.14F
BLAINE         PTSUNNY   14   5  67 CALM      30.15F
LAKEVILLE        N/A     14   7  73 CALM      30.15F
EDEN PRAIRIE   CLOUDY    15   6  67 SW6       30.14F WCI   6
SOUTH ST PAUL  MOSUNNY   14   4  63 CALM      30.16F
LAKE ELMO      FAIR      12   3  67 CALM      30.16F
$$
MNZ001>005-007-008-013>017-022>024-027-028-121800-
   Northwest Minnesota

CITY           SKY/WX    TMP DP  RH WIND       PRES   REMARKS
BEMIDJI        LGT SNOW  13  10  90 S6        29.98F WCI   3
HALLOCK        MOSUNNY   21  18  86 S13       29.92F WCI   9
ROSEAU         CLOUDY    12   9  85 SE8       29.94F WCI   1
WARROAD        LGT SNOW  10   9  92 SE6       29.96F WCI   1
THIEF RVR FALL CLOUDY    20  18  92 S13       29.94F WCI   7
CROOKSTON      SUNNY     23  21  93 S15       29.96F WCI  10
FOSSTON        CLOUDY    19  16  86 S13       29.97F WCI   7
DETROIT LAKES  MOSUNNY   21  19  93 S9        30.00F WCI  11
MOORHEAD       SUNNY     25  21  86 S7G17     30.00F WCI  17
PARK RAPIDS    LGT SNOW  14  11  87 S7        30.00F VSB 3/4 WCI   4
MAHNOMEN       CLOUDY    21  19  91 S15       29.97F WCI   8
$$
MNZ006-009>011-018-025>026-121800-
   North Central Minnesota

CITY           SKY/WX    TMP DP  RH WIND       PRES   REMARKS
BAUDETTE       LGT SNOW   8   5  87 SE9       29.98F FOG     WCI  -5
FLAG ISLAND    LGT SNOW   9   5  85 SE7       29.97F WCI  -3
INTL FALLS     CLOUDY     5   2  87 S5        30.03F WCI  -4
WASKISH        LGT SNOW  10   9  92 SE7       29.98F WCI   0
LONGVILLE      SNOW      10   9  92 S6        30.03F VSB 1/2 WCI   1
GRAND RAPIDS   FLURRIES   7   3  84 S6        30.07F WCI  -3
CRANE LAKE     CLOUDY     3   0  85 CALM      30.08F
ORR            CLOUDY     3   0  85 CALM      30.01F
COOK           CLOUDY     3   0  85 CALM      30.05F
WALKER         LGT SNOW  11   8  87 S5        30.00F VSB 3/4 WCI   3
$$
MNZ012-019>021-037-121800-
   Northeast Minnesota

CITY           SKY/WX    TMP DP  RH WIND       PRES   REMARKS
DULUTH         CLOUDY     5   0  79 NW12      30.05F WCI -11
ELY            CLOUDY     1  -2  85 S5        30.04S WCI  -8
HIBBING        CLOUDY     4   0  83 VRB3      30.05F
EVELETH        CLOUDY     2  -3  79 CALM      30.06F
DULUTH HARBOR  CLOUDY     9   1  72 S6        30.14F WCI  -1
TWO HARBORS    CLOUDY    10   1  67 NW5       30.05F WCI   2
SILVER BAY     CLOUDY     7  -2  66 CALM      30.04F
GRAND MARAIS     N/A     10  -5  50 CALM      30.10F
G MARAIS ARPRT SUNNY      1  -9  60 NW8       29.96S WCI -12
$$
MNZ029>031-032-039>041-046>048-054>057-064-121800-
   West Central Minnesota

CITY           SKY/WX    TMP DP  RH WIND       PRES   REMARKS
FERGUS FALLS   CLOUDY    23  19  86 S9        30.07F WCI  13
WHEATON        MOSUNNY   32  27  80 SW10      30.07F WCI  24
MORRIS         CLOUDY    27  21  80 SW8       30.07F WCI  18
ALEXANDRIA     CLOUDY    19  15  84 SW12      30.06F WCI   7
ELBOW LAKE     PTSUNNY   24  21  88 S10       30.05F FOG     WCI  13
WADENA         FLURRIES  16  14  93 S6        30.03F WCI   7
GLENWOOD       CLOUDY    19  16  86 S8        30.07F WCI   9
APPLETON       CLOUDY    27  21  80 SW7       30.09F WCI  19
BENSON         CLOUDY    23  18  80 SW7       30.10  WCI  15
ORTONVILLE     CLOUDY    30  25  80 SW3       30.08F
MADISON        CLOUDY    32  27  80 W10G16    30.10F WCI  24
WILLMAR        CLOUDY    21  18  86 S3        30.11F
$$
MNZ033>034-036-042>043-049>051-058-059-121800-
   Central Minnesota

CITY           SKY/WX    TMP DP  RH WIND       PRES   REMARKS
ST CLOUD       CLOUDY    13  10  88 S6        30.12F WCI   4
SAUK CENTRE    CLOUDY    18  12  79 S9        30.07F WCI   6
PAYNESVILLE    CLOUDY    19  13  79 S7        30.09F WCI   9
AITKIN         FLURRIES   9   3  78 S6        30.06F WCI  -1
PINE RIVER     LGT SNOW   9   5  85 SE7       30.07F WCI  -3
BRAINERD       LGT SNOW  11   6  81 SE6       30.05F WCI   1
STAPLES        CLOUDY    12  10  92 S7        30.04F FOG     WCI   2
LONG PRAIRIE   CLOUDY    16  12  86 S9        30.07F WCI   4
LITTLE FALLS   CLOUDY    14   9  79 SE5       30.10F HAZE    WCI   6
LITCHFIELD     CLOUDY    19  12  73 CALM      30.12F
BUFFALO        CLOUDY    14   8  75 SW6       30.14F WCI   5
MAPLE LAKE     CLOUDY    17  11  77 S5        30.13F WCI  10
HUTCHINSON     CLOUDY    19  12  76 S5        30.14F WCI  12
$$
MNZ037-044-045-052-053-121800-
   East Central Minnesota

CITY           SKY/WX    TMP DP  RH WIND       PRES   REMARKS
PRINCETON      FLURRIES  12   7  79 CALM      30.13F
MORA           CLOUDY    10   3  72 CALM      30.13F
CAMBRIDGE      CLOUDY    10   1  67 CALM      30.14F
RUSH CITY      CLOUDY     9   3  75 CALM      30.15F
MOOSE LAKE     CLOUDY    10   3  72 CALM      30.08F
HINCKLEY       CLOUDY    10   5  79 S5        30.11F WCI   2
CLOQUET        CLOUDY     7   1  78 NW7       30.07F WCI  -5
MCGREGOR       CLOUDY    10   7  85 S5        30.08F WCI   2
$$
MNZ071>073-080-081-089-090-097-098-121800-
   Southwest Minnesota

CITY           SKY/WX    TMP DP  RH WIND       PRES   REMARKS
MONTEVIDEO     CLOUDY    27  21  80 W7        30.10F WCI  19
GRANITE FALLS  CLOUDY    30  24  79 SW10      30.13F WCI  21
CANBY          CLOUDY    30  25  80 SW13G20   30.13S WCI  20
MARSHALL       CLOUDY    29  23  78 W15       30.12F WCI  18
REDWOOD FALLS  CLOUDY    23  15  71 S8        30.12F WCI  14
OLIVIA         CLOUDY    23  18  80 S5        30.12F WCI  17
PIPESTONE      CLOUDY    25  21  86 W13       30.12F WCI  13
WINDOM           N/A     25  12  58 SW12      30.12F WCI  14
WORTHINGTON    CLOUDY    24  18  77 SW14      30.14F WCI  12
JACKSON        MOSUNNY   23  18  80 MISG      30.14F
TRACY          PTSUNNY   29  24  83 W14       30.12F WCI  18
SLAYTON        SUNNY     25  21  85 W15       30.12F WCI  12
$$
MNZ065>067-074>077-082>085-091>093-121800-
   South Central Minnesota

CITY           SKY/WX    TMP DP  RH WIND       PRES   REMARKS
MANKATO        CLOUDY    17  10  74 SW5       30.16F WCI  10
NEW ULM        CLOUDY    19  10  68 S5        30.14F WCI  13
ST JAMES       CLOUDY    21  16  79 S6        30.16F WCI  14
FAIRMONT       CLOUDY    21  15  78 SW8       30.17F WCI  11
GLENCOE        CLOUDY    18  12  79 S3        30.14F
FARIBAULT      CLOUDY    16   7  67 SW3       30.15F
OWATONNA       MOSUNNY   16   7  67 W5        30.15F WCI   9
WASECA         PTSUNNY   18  10  73 W6        30.17F WCI   9
ALBERT LEA     SUNNY     16   5  62 W7        30.16F WCI   6
$$
MNZ078>079-086>088-094>096-121800-
   Southeast Minnesota

CITY           SKY/WX    TMP DP  RH WIND       PRES   REMARKS
ROCHESTER      SUNNY     13   6  74 W10       30.14F WCI   0
RED WING       MOSUNNY   12   1  62 W8        30.17F WCI   1
STANTON        PTSUNNY   16   7  68 CALM      30.15F
DODGE CENTER   MOSUNNY   12   3  67 W6        30.13F WCI   3
WINONA           N/A     14   5  67 W7        30.19F WCI   4
AUSTIN         MOSUNNY   16   7  67 NW6       30.16F WCI   7
PRESTON        SUNNY     14   6  69 NW10      30.16S WCI   1
$$
ABBREVIATIONS USED IN REMARKS
   TC - TEMPERATURES IN CELSIUS
  WCI - WIND CHILL INDEX
   HX - HEAT INDEX
  VSB - VISIBILITY
$$




USA.gov is the U.S. government's official web portal to all federal, state and local government web resources and services.